Willmar, MN

6:05 AM CST on February 06, 2016 (GMT -0600)
Willmar

Weather History for KBDH - October, 2013

Change the Weather History Date:

Monday, October 21, 2013

  Actual Average (KLJF) Record (KLJF)
Temperature  
Mean Temperature 32 °F -  
Max Temperature 41 °F 57 °F 79 °F (1953)
Min Temperature 24 °F 36 °F 21 °F (1982)
Degree Days  
Heating Degree Days 32    
Moisture  
Dew Point 22 °F    
Average Humidity 65    
Maximum Humidity 86    
Minimum Humidity 45    
Precipitation  
Precipitation 0.00 in - - ()
Sea Level Pressure  
Sea Level Pressure 29.97 in    
Wind  
Wind Speed 11 mph (WNW)    
Max Wind Speed 18 mph    
Max Gust Speed 24 mph    
Visibility 10 miles    
Events      
Averages and records for this station are not official NWS values.
T = Trace of Precipitation, MM = Missing Value Source: NWS Daily Summary

Daily Weather History Graph

Daily Weather History Graph

Search for Another Location

Airport or City:

Trip Planner

Search our weather history database for the weather conditions in past years. The results will help you decide how hot, cold, wet, or windy it might be!

Date:

Astronomy

Oct. 21, 2013 Rise Set
Actual Time 7:44 AM CDT 6:24 PM CDT
Civil Twilight 7:14 AM CDT 6:54 PM CDT
Nautical Twilight 6:40 AM CDT 7:28 PM CDT
Astronomical Twilight 6:06 AM CDT 8:02 PM CDT
Moon 8:11 PM CDT (10/21) 10:26 AM CDT (10/21)
Length of Visible Light 11h 40m
Length of Day
10h 40m
Waning Gibbous, 92% of the Moon is Illuminated
Oct 21
Waning Gibbous
Oct 26
Last Quarter
Nov 3
New
Nov 9
First Quarter
Nov 17
Full

Hourly Weather History & Observations

Time (CDT) Temp. Windchill Dew Point Humidity Pressure Visibility Wind Dir Wind Speed Gust Speed Precip Events Conditions
12:15 AM 35.6 °F 25.5 °F 21.2 °F 56% 29.95 in 10.0 mi NW 17.3 mph - N/A   Overcast
12:35 AM 35.6 °F 25.2 °F 19.4 °F 52% 29.96 in 10.0 mi NW 18.4 mph - N/A   Overcast
12:55 AM 35.6 °F 27.5 °F 21.2 °F 56% 29.96 in 10.0 mi NW 11.5 mph - N/A   Overcast
1:15 AM 35.6 °F 27.1 °F 21.2 °F 56% 29.96 in 10.0 mi NW 12.7 mph - N/A   Overcast
1:35 AM 35.6 °F 27.5 °F 21.2 °F 56% 29.96 in 10.0 mi WNW 11.5 mph 18.4 mph N/A   Overcast
1:55 AM 33.8 °F 25.3 °F 21.2 °F 60% 29.96 in 10.0 mi NW 11.5 mph - N/A   Scattered Clouds
2:15 AM 32.0 °F 24.8 °F 21.2 °F 64% 29.97 in 10.0 mi WNW 8.1 mph - N/A   Clear
2:35 AM 30.2 °F 22.6 °F 21.2 °F 69% 29.97 in 10.0 mi WNW 8.1 mph - N/A   Mostly Cloudy
2:56 AM 30.2 °F 24.3 °F 23.0 °F 75% 29.97 in 10.0 mi WNW 5.8 mph - N/A   Mostly Cloudy
3:15 AM 30.2 °F 23.4 °F 23.0 °F 75% 29.97 in 10.0 mi WNW 6.9 mph - N/A   Scattered Clouds
3:35 AM 32.0 °F 24.2 °F 24.8 °F 75% 29.97 in 10.0 mi WNW 9.2 mph - N/A   Mostly Cloudy
3:56 AM 32.0 °F 24.8 °F 24.8 °F 75% 29.98 in 10.0 mi WNW 8.1 mph - N/A   Mostly Cloudy
4:15 AM 32.0 °F 25.6 °F 24.8 °F 75% 29.97 in 10.0 mi West 6.9 mph - N/A   Mostly Cloudy
4:35 AM 30.2 °F 23.4 °F 24.8 °F 80% 29.97 in 10.0 mi WNW 6.9 mph - N/A   Mostly Cloudy
4:55 AM 30.2 °F 22.6 °F 24.8 °F 80% 29.98 in 10.0 mi West 8.1 mph - N/A   Scattered Clouds
5:15 AM 30.2 °F 23.4 °F 24.8 °F 80% 29.97 in 10.0 mi West 6.9 mph - N/A   Overcast
5:35 AM 30.2 °F 23.4 °F 24.8 °F 80% 29.98 in 10.0 mi West 6.9 mph - N/A   Overcast
5:55 AM 30.2 °F 24.3 °F 26.6 °F 86% 29.97 in 10.0 mi West 5.8 mph - N/A   Overcast
6:15 AM 32.0 °F 23.0 °F 23.0 °F 69% 29.97 in 10.0 mi WNW 11.5 mph 17.3 mph N/A   Overcast
6:35 AM 33.8 °F 26.4 °F 23.0 °F 65% 29.98 in 10.0 mi WNW 9.2 mph - N/A   Overcast
6:55 AM 33.8 °F 25.8 °F 23.0 °F 65% 29.98 in 10.0 mi WNW 10.4 mph - N/A   Overcast
7:15 AM 32.0 °F 24.8 °F 23.0 °F 69% 29.98 in 10.0 mi WNW 8.1 mph - N/A   Mostly Cloudy
7:35 AM 32.0 °F 25.6 °F 24.8 °F 75% 29.98 in 10.0 mi West 6.9 mph - N/A   Overcast
7:55 AM 30.2 °F 24.3 °F 24.8 °F 80% 29.98 in 10.0 mi West 5.8 mph - N/A   Overcast
8:15 AM 30.2 °F 24.3 °F 24.8 °F 80% 29.98 in 10.0 mi West 5.8 mph - N/A   Mostly Cloudy
8:35 AM 30.2 °F 22.6 °F 24.8 °F 80% 29.99 in 10.0 mi West 8.1 mph - N/A   Overcast
8:55 AM 32.0 °F 24.2 °F 24.8 °F 75% 29.99 in 10.0 mi West 9.2 mph - N/A   Overcast
9:15 AM 32.0 °F 23.6 °F 26.6 °F 80% 29.99 in 10.0 mi West 10.4 mph - N/A   Overcast
9:35 AM 33.8 °F 25.3 °F 26.6 °F 75% 29.99 in 10.0 mi WNW 11.5 mph - N/A   Overcast
9:55 AM 33.8 °F 23.9 °F 24.8 °F 70% 29.99 in 10.0 mi WNW 15.0 mph 18.4 mph N/A   Overcast
10:15 AM 33.8 °F 25.3 °F 19.4 °F 56% 29.99 in 10.0 mi WNW 11.5 mph 21.9 mph N/A   Overcast
10:35 AM 33.8 °F 23.5 °F 17.6 °F 52% 29.99 in 10.0 mi NW 16.1 mph 24.2 mph N/A   Overcast
10:55 AM 35.6 °F 25.9 °F 19.4 °F 52% 29.99 in 10.0 mi NW 16.1 mph 19.6 mph N/A   Overcast
11:15 AM 35.6 °F 25.5 °F 19.4 °F 52% 29.99 in 10.0 mi WNW 17.3 mph - N/A   Overcast
11:35 AM 35.6 °F 27.1 °F 21.2 °F 56% 29.99 in 10.0 mi WNW 12.7 mph 19.6 mph N/A   Overcast
11:55 AM 35.6 °F 27.1 °F 21.2 °F 56% 29.99 in 10.0 mi WNW 12.7 mph 23.0 mph N/A   Overcast
12:15 PM 35.6 °F 25.5 °F 19.4 °F 52% 29.99 in 10.0 mi NW 17.3 mph 21.9 mph N/A   Mostly Cloudy
12:35 PM 35.6 °F 25.9 °F 19.4 °F 52% 29.98 in 10.0 mi NW 16.1 mph 19.6 mph N/A   Overcast
12:55 PM 35.6 °F 25.2 °F 19.4 °F 52% 29.98 in 10.0 mi NW 18.4 mph 23.0 mph N/A   Overcast
1:15 PM 37.4 °F 27.8 °F 19.4 °F 48% 29.98 in 10.0 mi WNW 17.3 mph 20.7 mph N/A   Overcast
1:35 PM 37.4 °F 28.5 °F 19.4 °F 48% 29.97 in 10.0 mi WNW 15.0 mph - N/A   Mostly Cloudy
1:55 PM 37.4 °F 30.3 °F 21.2 °F 52% 29.97 in 10.0 mi WNW 10.4 mph 23.0 mph N/A   Mostly Cloudy
2:15 PM 39.2 °F 30.5 °F 21.2 °F 49% 29.96 in 10.0 mi WNW 16.1 mph 24.2 mph N/A   Mostly Cloudy
2:35 PM 39.2 °F 30.8 °F 21.2 °F 49% 29.96 in 10.0 mi WNW 15.0 mph - N/A   Scattered Clouds
2:56 PM 41.0 °F 32.5 °F 21.2 °F 45% 29.96 in 10.0 mi NW 17.3 mph 24.2 mph N/A   Mostly Cloudy
3:15 PM 39.2 °F 31.6 °F 21.2 °F 49% 29.96 in 10.0 mi WNW 12.7 mph 23.0 mph N/A   Mostly Cloudy
3:35 PM 39.2 °F 31.2 °F 21.2 °F 49% 29.96 in 10.0 mi WNW 13.8 mph 20.7 mph N/A   Scattered Clouds
3:55 PM 39.2 °F 30.5 °F 21.2 °F 49% 29.96 in 10.0 mi NW 16.1 mph 20.7 mph N/A   Scattered Clouds
4:15 PM 39.2 °F 30.8 °F 21.2 °F 49% 29.95 in 10.0 mi NW 15.0 mph 20.7 mph N/A   Scattered Clouds
4:35 PM 39.2 °F 32.0 °F 21.2 °F 49% 29.96 in 10.0 mi NW 11.5 mph - N/A   Scattered Clouds
4:55 PM 39.2 °F 32.5 °F 21.2 °F 49% 29.96 in 10.0 mi NW 10.4 mph 19.6 mph N/A   Scattered Clouds
5:15 PM 39.2 °F 31.6 °F 21.2 °F 49% 29.96 in 10.0 mi NW 12.7 mph - N/A   Clear
5:35 PM 39.2 °F 32.5 °F 21.2 °F 49% 29.96 in 10.0 mi NW 10.4 mph - N/A   Clear
5:55 PM 37.4 °F 31.4 °F 21.2 °F 52% 29.96 in 10.0 mi NW 8.1 mph - N/A   Clear
6:15 PM 35.6 °F 30.7 °F 23.0 °F 60% 29.96 in 10.0 mi NW 5.8 mph - N/A   Clear
6:35 PM 33.8 °F 29.6 °F 24.8 °F 70% 29.97 in 10.0 mi NNW 4.6 mph - N/A   Clear
6:55 PM 32.0 °F 27.5 °F 23.0 °F 69% 29.97 in 10.0 mi NNW 4.6 mph - N/A   Clear
7:15 PM 32.0 °F 27.5 °F 23.0 °F 69% 29.97 in 10.0 mi NW 4.6 mph - N/A   Clear
7:35 PM 32.0 °F 28.7 °F 23.0 °F 69% 29.97 in 10.0 mi NW 3.5 mph - N/A   Clear
7:55 PM 30.2 °F 26.7 °F 23.0 °F 75% 29.97 in 10.0 mi NNW 3.5 mph - N/A   Clear
8:15 PM 30.2 °F - 23.0 °F 75% 29.98 in 10.0 mi Calm Calm - N/A   Clear
8:35 PM 30.2 °F - 24.8 °F 80% 29.97 in 10.0 mi Calm Calm - N/A   Clear
8:55 PM 28.4 °F - 21.2 °F 74% 29.97 in 10.0 mi Calm Calm - N/A   Clear
9:15 PM 28.4 °F - 23.0 °F 80% 29.97 in 10.0 mi Calm Calm - N/A   Clear
9:35 PM 28.4 °F - 21.2 °F 74% 29.97 in 10.0 mi Calm Calm - N/A   Clear
9:55 PM 28.4 °F 24.6 °F 23.0 °F 80% 29.97 in 10.0 mi North 3.5 mph - N/A   Clear
10:15 PM 28.4 °F - 23.0 °F 80% 29.97 in 10.0 mi Calm Calm - N/A   Clear
10:35 PM 26.6 °F - 21.2 °F 80% 29.97 in 10.0 mi Calm Calm - N/A   Clear
10:55 PM 24.8 °F - 19.4 °F 80% 29.97 in 10.0 mi Calm Calm - N/A   Clear
11:15 PM 24.8 °F - 21.2 °F 86% 29.97 in 10.0 mi Calm Calm - N/A   Clear
11:35 PM 26.6 °F - 21.2 °F 80% 29.97 in 10.0 mi Calm Calm - N/A   Clear
11:55 PM 26.6 °F - 21.2 °F 80% 29.97 in 10.0 mi Calm Calm - N/A   Clear